Regional Weather Roundup
Issued by NWS Little Rock, AR

Home | Current Version | Previous Version | Graphics & Text | Print | Product List | Glossary On
Versions: 1 2 3 4 5 6 7 8 9 10 11 12 13 14 15 16 17 18 19 20 21 22 23 24 25 26 27 28 29 30 31 32 33 34 35 36 37 38 39 40 41 42 43 44 45 46 47
000
ASUS44 KLZK 011605
RWRLZK

WEATHER ROUNDUP FOR ARKANSAS
NATIONAL WEATHER SERVICE LITTLE ROCK AR
1100 AM CDT SAT AUG 01 2015

NOTE: "FAIR" INDICATES FEW OR NO CLOUDS BELOW 12,000 FEET WITH NO
SIGNIFICANT WEATHER AND/OR OBSTRUCTIONS TO VISIBILITY.

ARZ001-003-010-029-011700-
NORTHWEST ARKANSAS

CITY           SKY/WX    TMP DP  RH WIND       PRES   REMARKS
FAYETTEVILLE   SUNNY     84  67  56 S6        30.11S HX  86
FORT SMITH     SUNNY     86  64  47 CALM      30.07S HX  87
HARRISON       SUNNY     85  66  53 CALM      30.12S HX  87
BENTONVILLE    SUNNY     84  63  48 W5        30.13S HX  85
ROGERS         SUNNY     86  66  51 VRB6      30.12S HX  88
SILOAM SPGS    SUNNY     86  63  45 CALM      30.10S HX  87
HIGHFILL       SUNNY     85  67  54 SW6       30.11S HX  87
SPRINGDALE     SUNNY     84  66  54 SE3       30.14S HX  86
$$

ARZ004-005-016-011700-
NORTH CENTRAL ARKANSAS

CITY           SKY/WX    TMP DP  RH WIND       PRES   REMARKS
BATESVILLE     SUNNY     84  73  70 CALM      30.07S HX  91
FLIPPIN        SUNNY     82  68  61 CALM      30.08S HX  85
MTN HOME       SUNNY     83  70  64 SW3       30.09S HX  87
$$

ARZ040-041-011700-
WEST CENTRAL ARKANSAS

CITY           SKY/WX    TMP DP  RH WIND       PRES   REMARKS
MENA           SUNNY     90  63  40 E7        30.11S HX  90
MOUNT IDA      SUNNY     87  66  49 VRB3      30.07S HX  89
$$

ARZ009-017-025-026-028-011700-
NORTHEAST ARKANSAS

CITY           SKY/WX    TMP DP  RH WIND       PRES   REMARKS
JONESBORO      SUNNY     88  66  48 N6        30.04F HX  90
NEWPORT        SUNNY     87  72  61 N5        30.07S HX  93
WALNUT RIDGE   SUNNY     86  66  51 NE7       30.05S HX  88
BLYTHEVILLE    SUNNY     88  72  58 CALM      30.04S HX  94
$$

ARZ022-023-033-042-044-011700-
CENTRAL ARKANSAS

CITY           SKY/WX    TMP DP  RH WIND       PRES   REMARKS
LITTLE ROCK    MOSUNNY   91  67  44 NE6       30.06R HX  94
N LITTLE ROCK  MOSUNNY   94  66  39 E7        30.06R HX  97
JACKSONVILLE   SUNNY     91  64  40 VRB1      30.06R HX  92
SEARCY         SUNNY     90  68  48 NE5       30.07R HX  94
HOT SPRINGS    SUNNY     91  60  35 SE7       30.08S HX  90
RUSSELLVILLE   SUNNY     87  65  47 CALM      30.07S HX  89
CLINTON        FAIR      88  72  58 CALM      30.09S HX  94
$$

ARZ036-011700-
EAST ARKANSAS

CITY           SKY/WX    TMP DP  RH WIND       PRES   REMARKS
WEST MEMPHIS   SUNNY     89  71  55 VRB3      30.04R HX  95
$$

ARZ050-053-066-070-073-011700-
SOUTHWEST ARKANSAS

CITY           SKY/WX    TMP DP  RH WIND       PRES   REMARKS
ARKADELPHIA    FAIR      90  68  48 CALM      30.07R HX  94
CAMDEN         SUNNY     88  64  45 E3        30.06R HX  89
TEXARKANA      SUNNY     88  65  46 SE8       30.07S HX  90
EL DORADO      SUNNY     87  66  49 NE9       30.06S HX  89
DE QUEEN       SUNNY     88  67  49 SE6       30.06R HX  91
$$

ARZ056-057-069-011700-
SOUTHEAST ARKANSAS

CITY           SKY/WX    TMP DP  RH WIND       PRES   REMARKS
PINE BLUFF     SUNNY     88  69  53 E7        30.06R HX  92
STUTTGART      SUNNY     88  70  55 MISG      30.06R HX  92
MONTICELLO     SUNNY     88  68  51 NE8       30.05R HX  91

$$





USA.gov is the U.S. government's official web portal to all federal, state and local government web resources and services.